| time (UTC) | temp C | wind direction | speed KPH | gust KPH | rain 1hr cm | rain 24hr cm | rain mn cm | humidity % | barometer mb |
| 20260507180558 | 17 | 264 | 1.6 | 0.0 | 0.00 | 0.00 | 0.00 | 93 | 1005.9 |
| 20260507180507 | 17 | 264 | 1.6 | 0.0 | 0.00 | 0.00 | 0.00 | 93 | 1005.9 |
| 20260507180016 | 17 | 350 | 1.6 | 0.0 | 0.00 | 0.00 | 0.00 | 93 | 1006.1 |
| 20260507175531 | 17 | 350 | 3.2 | 0.0 | 0.00 | 0.00 | 0.00 | 95 | 1006.1 |
| 20260507175038 | 17 | 247 | 3.2 | 0.0 | 0.00 | 0.00 | 0.00 | 94 | 1006.2 |
| 20260507174555 | 17 | 69 | 3.2 | 0.0 | 0.00 | 0.00 | 0.00 | 95 | 1006.2 |
| 20260507174005 | 17 | 333 | 1.6 | 0.0 | 0.00 | 0.00 | 0.00 | 94 | 1006.1 |
| 20260507173521 | 17 | 334 | 3.2 | 0.0 | 0.00 | 0.00 | 0.00 | 95 | 1006.0 |
| 20260507173032 | 17 | 296 | 3.2 | 0.0 | 0.00 | 0.00 | 0.00 | 95 | 1006.1 |
| 20260507172542 | 17 | 255 | 1.6 | 0.0 | 0.00 | 0.00 | 0.00 | 95 | 1006.1 |
| 20260507172052 | 17 | 310 | 1.6 | 0.0 | 0.00 | 0.00 | 0.00 | 94 | 1006.0 |
| 20260507171510 | 17 | 298 | 1.6 | 0.0 | 0.00 | 0.00 | 0.00 | 98 | 1006.1 |
| 20260507171019 | 17 | 328 | 1.6 | 0.0 | 0.00 | 0.00 | 0.00 | 99 | 1006.2 |
| 20260507170531 | 16 | 327 | 3.2 | 0.0 | 0.00 | 0.00 | 0.00 | 99 | 1006.3 |
| 20260507170042 | 16 | 327 | 3.2 | 0.0 | 0.00 | 0.00 | 0.00 | 97 | 1006.3 |
| 20260507165556 | 16 | 340 | 3.2 | 0.0 | 0.00 | 0.00 | 0.00 | 97 | 1006.4 |
| 20260507165008 | 16 | 340 | 1.6 | 0.0 | 0.00 | 0.00 | 0.00 | 97 | 1006.5 |
| 20260507164522 | 16 | 318 | 1.6 | 0.0 | 0.00 | 0.00 | 0.00 | 98 | 1006.6 |
| 20260507164032 | 16 | 322 | 1.6 | 0.0 | 0.00 | 0.00 | 0.00 | 98 | 1006.5 |
| 20260507163547 | 16 | 316 | 3.2 | 0.0 | 0.00 | 0.00 | 0.00 | 100 | 1006.5 |
| 20260507163056 | 16 | 315 | 3.2 | 0.0 | 0.00 | 0.00 | 0.00 | 100 | 1006.6 |
| 20260507162512 | 16 | 296 | 3.2 | 0.0 | 0.00 | 0.00 | 0.00 | 100 | 1006.6 |
| 20260507162023 | 16 | 273 | 3.2 | 0.0 | 0.00 | 0.00 | 0.00 | 100 | 1006.6 |
| 20260507161539 | 16 | 335 | 1.6 | 0.0 | 0.00 | 0.00 | 0.00 | 100 | 1006.6 |
| 20260507161046 | 16 | 312 | 1.6 | 0.0 | 0.00 | 0.00 | 0.00 | 100 | 1006.7 |
| 20260507160600 | 16 | 242 | 1.6 | 0.0 | 0.00 | 0.00 | 0.00 | 100 | 1006.7 |
| 20260507160504 | 16 | 242 | 1.6 | 0.0 | 0.00 | 0.00 | 0.00 | 100 | 1006.8 |
| 20260507160028 | 15 | 304 | 1.6 | 0.0 | 0.00 | 0.00 | 0.00 | 100 | 1006.8 |
| 20260507155528 | 15 | 264 | 1.6 | 0.0 | 0.00 | 0.00 | 0.00 | 100 | 1006.9 |
| 20260507155042 | 15 | 350 | 3.2 | 0.0 | 0.00 | 0.00 | 0.00 | 100 | 1006.9 |
| 20260507154550 | 15 | 340 | 1.6 | 0.0 | 0.00 | 0.00 | 0.00 | 100 | 1006.9 |
| 20260507154008 | 15 | 329 | 1.6 | 0.0 | 0.00 | 0.00 | 0.00 | 100 | 1007.0 |
| 20260507153516 | 15 | 328 | 1.6 | 0.0 | 0.00 | 0.00 | 0.00 | 100 | 1007.0 |
| 20260507153031 | 14 | 336 | 0.0 | 0.0 | 0.00 | 0.00 | 0.00 | 100 | 1007.0 |
| 20260507152540 | 14 | 335 | 1.6 | 0.0 | 0.00 | 0.00 | 0.00 | 100 | 1007.0 |
| 20260507152058 | 14 | 335 | 1.6 | 0.0 | 0.00 | 0.00 | 0.00 | 100 | 1007.2 |
| 20260507151506 | 14 | 325 | 1.6 | 0.0 | 0.00 | 0.00 | 0.00 | 100 | 1007.2 |
| 20260507151019 | 14 | 303 | 1.6 | 0.0 | 0.00 | 0.00 | 0.00 | 100 | 1007.2 |
| 20260507150530 | 14 | 321 | 1.6 | 0.0 | 0.00 | 0.00 | 0.00 | 100 | 1007.2 |
| 20260507150046 | 14 | 328 | 1.6 | 0.0 | 0.00 | 0.00 | 0.00 | 100 | 1007.2 |
| 20260507145554 | 13 | 205 | 0.0 | 0.0 | 0.00 | 0.00 | 0.00 | 100 | 1007.3 |
| 20260507145009 | 13 | 321 | 0.0 | 0.0 | 0.00 | 0.00 | 0.00 | 100 | 1007.3 |
| 20260507144520 | 13 | 321 | 1.6 | 0.0 | 0.00 | 0.00 | 0.00 | 100 | 1007.3 |
| 20260507144034 | 13 | 325 | 1.6 | 0.0 | 0.00 | 0.00 | 0.00 | 100 | 1007.4 |
| 20260507143543 | 13 | 323 | 1.6 | 0.0 | 0.00 | 0.00 | 0.00 | 100 | 1007.4 |
| 20260507143110 | 13 | 323 | 1.6 | 0.0 | 0.00 | 0.00 | 0.00 | 100 | 1007.6 |
| 20260507142510 | 13 | 287 | 0.0 | 0.0 | 0.00 | 0.00 | 0.00 | 100 | 1007.7 |
| 20260507142023 | 13 | 287 | 0.0 | 0.0 | 0.00 | 0.00 | 0.00 | 100 | 1007.5 |
| 20260507141552 | 13 | 287 | 0.0 | 0.0 | 0.00 | 0.00 | 0.00 | 100 | 1007.6 |
| 20260507141051 | 13 | 286 | 0.0 | 0.0 | 0.00 | 0.00 | 0.00 | 100 | 1007.6 |
| 20260507140602 | 13 | 289 | 0.0 | 0.0 | 0.00 | 0.00 | 0.00 | 100 | 1007.6 |
| 20260507140509 | 13 | 289 | 0.0 | 0.0 | 0.00 | 0.00 | 0.00 | 100 | 1007.6 |
| 20260507140014 | 12 | 287 | 0.0 | 0.0 | 0.00 | 0.00 | 0.00 | 100 | 1007.6 |
| 20260507135530 | 12 | 287 | 0.0 | 0.0 | 0.00 | 0.00 | 0.00 | 100 | 1007.6 |
| 20260507135038 | 12 | 286 | 0.0 | 0.0 | 0.00 | 0.00 | 0.00 | 100 | 1007.7 |
| 20260507134555 | 12 | 285 | 0.0 | 0.0 | 0.00 | 0.00 | 0.00 | 100 | 1007.7 |
| 20260507134004 | 12 | 286 | 0.0 | 0.0 | 0.00 | 0.00 | 0.00 | 100 | 1007.6 |
| 20260507133518 | 12 | 285 | 0.0 | 0.0 | 0.00 | 0.00 | 0.00 | 100 | 1007.6 |
| 20260507133030 | 11 | 302 | 0.0 | 0.0 | 0.00 | 0.00 | 0.00 | 100 | 1007.8 |
| 20260507132542 | 11 | 328 | 0.0 | 0.0 | 0.00 | 0.00 | 0.00 | 96 | 1007.8 |
| 20260507132052 | 10 | 303 | 0.0 | 0.0 | 0.00 | 0.00 | 0.00 | 70 | 1007.8 |
| 20260507131510 | 10 | 303 | 0.0 | 0.0 | 0.00 | 0.00 | 0.00 | 59 | 1007.8 |
| 20260507131021 | 10 | 302 | 0.0 | 0.0 | 0.00 | 0.00 | 0.00 | 57 | 1007.9 |
| 20260507130531 | 11 | 302 | 0.0 | 0.0 | 0.00 | 0.00 | 0.00 | 57 | 1008.0 |
| 20260507130044 | 11 | 302 | 0.0 | 0.0 | 0.00 | 0.00 | 0.00 | 57 | 1007.9 |
| 20260507125556 | 12 | 302 | 0.0 | 0.0 | 0.00 | 0.00 | 0.00 | 57 | 1007.9 |
| 20260507125007 | 12 | 301 | 0.0 | 0.0 | 0.00 | 0.00 | 0.00 | 57 | 1007.9 |
| 20260507124522 | 12 | 330 | 0.0 | 0.0 | 0.00 | 0.00 | 0.00 | 57 | 1008.0 |
| 20260507124034 | 12 | 330 | 0.0 | 0.0 | 0.00 | 0.00 | 0.00 | 57 | 1008.1 |
| 20260507123546 | 12 | 330 | 0.0 | 0.0 | 0.00 | 0.00 | 0.00 | 57 | 1008.1 |
| 20260507123111 | 12 | 329 | 0.0 | 0.0 | 0.00 | 0.00 | 0.00 | 57 | 1008.1 |
| 20260507122511 | 12 | 330 | 0.0 | 0.0 | 0.00 | 0.00 | 0.00 | 57 | 1008.2 |
| 20260507122022 | 12 | 330 | 0.0 | 0.0 | 0.00 | 0.00 | 0.00 | 57 | 1008.2 |
| 20260507121542 | 11 | 330 | 0.0 | 0.0 | 0.00 | 0.00 | 0.00 | 57 | 1008.1 |
| 20260507121046 | 11 | 330 | 0.0 | 0.0 | 0.00 | 0.00 | 0.00 | 57 | 1008.0 |
| 20260507120559 | 11 | 329 | 0.0 | 0.0 | 0.00 | 0.00 | 0.00 | 57 | 1008.1 |
| 20260507120501 | 11 | 329 | 0.0 | 0.0 | 0.00 | 0.00 | 0.00 | 57 | 1008.1 |
| 20260507120018 | 11 | 329 | 0.0 | 0.0 | 0.00 | 0.00 | 0.00 | 57 | 1008.0 |
| 20260507115527 | 11 | 329 | 0.0 | 0.0 | 0.00 | 0.00 | 0.00 | 57 | 1007.9 |
| 20260507115042 | 11 | 329 | 0.0 | 0.0 | 0.00 | 0.00 | 0.00 | 57 | 1008.0 |
| 20260507114553 | 11 | 329 | 0.0 | 0.0 | 0.00 | 0.00 | 0.00 | 57 | 1008.0 |
| 20260507114004 | 11 | 329 | 0.0 | 0.0 | 0.00 | 0.00 | 0.00 | 57 | 1007.9 |
| 20260507113516 | 11 | 329 | 0.0 | 0.0 | 0.00 | 0.00 | 0.00 | 57 | 1008.0 |
| 20260507113028 | 11 | 329 | 0.0 | 0.0 | 0.00 | 0.00 | 0.00 | 57 | 1007.9 |
| 20260507112538 | 11 | 329 | 0.0 | 0.0 | 0.00 | 0.00 | 0.00 | 57 | 1007.9 |
| 20260507112052 | 11 | 329 | 0.0 | 0.0 | 0.00 | 0.00 | 0.00 | 57 | 1007.8 |
| 20260507111506 | 11 | 329 | 0.0 | 0.0 | 0.00 | 0.00 | 0.00 | 57 | 1007.8 |
| 20260507111019 | 11 | 329 | 0.0 | 0.0 | 0.00 | 0.00 | 0.00 | 57 | 1007.9 |
| 20260507110528 | 11 | 329 | 0.0 | 0.0 | 0.00 | 0.00 | 0.00 | 57 | 1007.8 |
| 20260507110044 | 11 | 329 | 0.0 | 0.0 | 0.00 | 0.00 | 0.00 | 57 | 1007.6 |
| 20260507105552 | 11 | 329 | 0.0 | 0.0 | 0.00 | 0.00 | 0.00 | 57 | 1007.6 |
| 20260507105012 | 11 | 329 | 0.0 | 0.0 | 0.00 | 0.00 | 0.00 | 57 | 1007.3 |
| 20260507104518 | 11 | 329 | 0.0 | 0.0 | 0.00 | 0.00 | 0.00 | 57 | 1007.5 |
| 20260507104032 | 11 | 329 | 0.0 | 0.0 | 0.00 | 0.00 | 0.00 | 57 | 1007.7 |
| 20260507103541 | 11 | 329 | 0.0 | 0.0 | 0.00 | 0.00 | 0.00 | 57 | 1007.8 |
| 20260507103056 | 11 | 329 | 0.0 | 0.0 | 0.00 | 0.00 | 0.00 | 57 | 1007.9 |
| 20260507102508 | 10 | 329 | 0.0 | 0.0 | 0.00 | 0.00 | 0.00 | 57 | 1007.9 |
| 20260507102022 | 10 | 329 | 0.0 | 0.0 | 0.00 | 0.00 | 0.00 | 57 | 1007.7 |
| 20260507101532 | 10 | 329 | 0.0 | 0.0 | 0.00 | 0.00 | 0.00 | 57 | 1007.3 |
| 20260507101045 | 10 | 329 | 0.0 | 0.0 | 0.00 | 0.00 | 0.00 | 57 | 1007.3 |
| 20260507100557 | 10 | 329 | 0.0 | 0.0 | 0.00 | 0.00 | 0.00 | 57 | 1007.2 |
| 20260507100506 | 10 | 329 | 0.0 | 0.0 | 0.00 | 0.00 | 0.00 | 57 | 1007.2 |
| 20260507100012 | 10 | 329 | 0.0 | 0.0 | 0.00 | 0.00 | 0.00 | 57 | 1007.3 |
| 20260507095532 | 10 | 329 | 0.0 | 0.0 | 0.00 | 0.00 | 0.00 | 57 | 1007.3 |
| 20260507095039 | 10 | 329 | 0.0 | 0.0 | 0.00 | 0.00 | 0.00 | 57 | 1007.1 |
| 20260507094553 | 10 | 329 | 0.0 | 0.0 | 0.00 | 0.00 | 0.00 | 57 | 1007.1 |
| 20260507094103 | 10 | 329 | 0.0 | 0.0 | 0.00 | 0.00 | 0.00 | 57 | 1007.0 |
| 20260507094006 | 10 | 329 | 0.0 | 0.0 | 0.00 | 0.00 | 0.00 | 57 | 1007.1 |
| 20260507093516 | 10 | 329 | 0.0 | 0.0 | 0.00 | 0.00 | 0.00 | 57 | 1007.0 |
| 20260507093026 | 10 | 329 | 0.0 | 0.0 | 0.00 | 0.00 | 0.00 | 57 | 1007.0 |
| 20260507092540 | 9 | 329 | 0.0 | 0.0 | 0.00 | 0.00 | 0.00 | 57 | 1007.1 |
| 20260507092049 | 9 | 329 | 0.0 | 0.0 | 0.00 | 0.00 | 0.00 | 57 | 1007.0 |
| 20260507091511 | 9 | 329 | 0.0 | 0.0 | 0.00 | 0.00 | 0.00 | 57 | 1007.0 |
| 20260507091018 | 9 | 329 | 0.0 | 0.0 | 0.00 | 0.00 | 0.00 | 57 | 1007.1 |
| 20260507090529 | 9 | 329 | 0.0 | 0.0 | 0.00 | 0.00 | 0.00 | 57 | 1007.1 |
| 20260507090049 | 8 | 329 | 0.0 | 0.0 | 0.00 | 0.00 | 0.00 | 57 | 1007.3 |
| 20260507085554 | 8 | 329 | 0.0 | 0.0 | 0.00 | 0.00 | 0.00 | 57 | 1007.3 |
| 20260507085006 | 8 | 329 | 0.0 | 0.0 | 0.00 | 0.00 | 0.00 | 57 | 1007.4 |
| 20260507084520 | 8 | 329 | 0.0 | 0.0 | 0.00 | 0.00 | 0.00 | 57 | 1007.3 |
| 20260507084030 | 8 | 329 | 0.0 | 0.0 | 0.00 | 0.00 | 0.00 | 57 | 1007.4 |
| 20260507083544 | 8 | 329 | 0.0 | 0.0 | 0.00 | 0.00 | 0.00 | 57 | 1007.3 |
| 20260507083057 | 8 | 329 | 0.0 | 0.0 | 0.00 | 0.00 | 0.00 | 57 | 1007.2 |
| 20260507082512 | 8 | 329 | 0.0 | 0.0 | 0.00 | 0.00 | 0.00 | 57 | 1007.1 |
| 20260507082020 | 8 | 329 | 0.0 | 0.0 | 0.00 | 0.00 | 0.00 | 57 | 1007.1 |
| 20260507081534 | 8 | 329 | 0.0 | 0.0 | 0.00 | 0.00 | 0.00 | 57 | 1007.0 |
| 20260507081042 | 8 | 329 | 0.0 | 0.0 | 0.00 | 0.00 | 0.00 | 57 | 1006.8 |
| 20260507080556 | 8 | 329 | 0.0 | 0.0 | 0.00 | 0.00 | 0.00 | 57 | 1006.8 |
| 20260507080015 | 9 | 329 | 0.0 | 0.0 | 0.00 | 0.00 | 0.00 | 57 | 1007.0 |
| 20260507075522 | 9 | 329 | 0.0 | 0.0 | 0.00 | 0.00 | 0.00 | 57 | 1007.2 |
| 20260507075040 | 9 | 329 | 0.0 | 0.0 | 0.00 | 0.00 | 0.00 | 57 | 1006.9 |
| 20260507074547 | 10 | 329 | 0.0 | 0.0 | 0.00 | 0.00 | 0.00 | 59 | 1006.9 |
| 20260507074002 | 10 | 329 | 0.0 | 0.0 | 0.00 | 0.00 | 0.00 | 74 | 1006.7 |
| 20260507073512 | 10 | 329 | 0.0 | 0.0 | 0.00 | 0.00 | 0.00 | 84 | 1006.8 |
| 20260507073030 | 11 | 329 | 1.6 | 0.0 | 0.00 | 0.00 | 0.00 | 94 | 1006.8 |
| 20260507072536 | 11 | 320 | 1.6 | 0.0 | 0.00 | 0.00 | 0.00 | 98 | 1006.8 |
| 20260507072050 | 11 | 318 | 0.0 | 0.0 | 0.00 | 0.00 | 0.00 | 95 | 1006.5 |
| 20260507071605 | 11 | 317 | 0.0 | 0.0 | 0.00 | 0.00 | 0.00 | 94 | 1006.3 |
| 20260507071502 | 11 | 317 | 0.0 | 0.0 | 0.00 | 0.00 | 0.00 | 94 | 1006.2 |
| 20260507071020 | 11 | 317 | 0.0 | 0.0 | 0.00 | 0.00 | 0.00 | 95 | 1006.1 |
| 20260507070526 | 11 | 317 | 0.0 | 0.0 | 0.00 | 0.00 | 0.00 | 95 | 1005.9 |
| 20260507070044 | 11 | 316 | 0.0 | 0.0 | 0.00 | 0.00 | 0.00 | 91 | 1006.0 |
| 20260507065554 | 11 | 316 | 0.0 | 0.0 | 0.00 | 0.00 | 0.00 | 93 | 1006.0 |
| 20260507065006 | 11 | 316 | 0.0 | 0.0 | 0.00 | 0.00 | 0.00 | 94 | 1006.0 |
| 20260507064526 | 11 | 314 | 0.0 | 0.0 | 0.00 | 0.00 | 0.00 | 93 | 1006.1 |
| 20260507064030 | 11 | 314 | 1.6 | 0.0 | 0.00 | 0.00 | 0.00 | 90 | 1006.0 |
| 20260507063541 | 11 | 314 | 1.6 | 0.0 | 0.00 | 0.00 | 0.00 | 90 | 1006.2 |
| 20260507063107 | 11 | 340 | 1.6 | 0.0 | 0.00 | 0.00 | 0.00 | 77 | 1006.4 |
| 20260507062512 | 11 | 327 | 0.0 | 0.0 | 0.00 | 0.00 | 0.00 | 67 | 1006.3 |
| 20260507062020 | 11 | 271 | 0.0 | 0.0 | 0.00 | 0.00 | 0.00 | 62 | 1006.2 |
| 20260507061532 | 11 | 271 | 0.0 | 0.0 | 0.00 | 0.00 | 0.00 | 60 | 1006.1 |
| 20260507061044 | 11 | 254 | 0.0 | 0.0 | 0.00 | 0.00 | 0.00 | 59 | 1006.0 |
| 20260507060555 | 11 | 254 | 0.0 | 0.0 | 0.00 | 0.00 | 0.00 | 61 | 1005.9 |
| 20260507060503 | 11 | 16 | 0.0 | 0.0 | 0.00 | 0.00 | 0.00 | 61 | 1005.9 |
| 20260507060013 | 11 | 17 | 0.0 | 0.0 | 0.00 | 0.00 | 0.00 | 57 | 1006.0 |
| 20260507055527 | 11 | 17 | 0.0 | 0.0 | 0.00 | 0.00 | 0.00 | 57 | 1006.2 |
| 20260507055035 | 11 | 17 | 0.0 | 0.0 | 0.00 | 0.00 | 0.00 | 57 | 1006.2 |
| 20260507054559 | 11 | 17 | 0.0 | 0.0 | 0.00 | 0.00 | 0.00 | 57 | 1006.3 |
| 20260507054058 | 12 | 19 | 0.0 | 0.0 | 0.00 | 0.00 | 0.00 | 57 | 1006.2 |
| 20260507053514 | 12 | 19 | 0.0 | 0.0 | 0.00 | 0.00 | 0.00 | 57 | 1006.4 |
| 20260507053024 | 12 | 19 | 0.0 | 0.0 | 0.00 | 0.00 | 0.00 | 57 | 1006.6 |
| 20260507052538 | 12 | 19 | 1.6 | 0.0 | 0.00 | 0.00 | 0.00 | 57 | 1006.5 |
| 20260507052051 | 12 | 20 | 0.0 | 0.0 | 0.00 | 0.00 | 0.00 | 57 | 1006.3 |
| 20260507051504 | 12 | 21 | 0.0 | 0.0 | 0.00 | 0.00 | 0.00 | 57 | 1006.4 |
| 20260507051013 | 12 | 21 | 0.0 | 0.0 | 0.00 | 0.00 | 0.00 | 57 | 1006.3 |
| 20260507050531 | 12 | 21 | 1.6 | 0.0 | 0.00 | 0.00 | 0.00 | 57 | 1006.1 |
| 20260507050044 | 13 | 23 | 1.6 | 0.0 | 0.00 | 0.00 | 0.00 | 57 | 1006.2 |
| 20260507045552 | 14 | 306 | 1.6 | 0.0 | 0.00 | 0.00 | 0.00 | 57 | 1006.1 |
| 20260507045005 | 15 | 340 | 1.6 | 0.0 | 0.00 | 0.00 | 0.00 | 57 | 1006.2 |
| 20260507044518 | 15 | 340 | 1.6 | 0.0 | 0.00 | 0.00 | 0.00 | 57 | 1006.3 |
| 20260507044028 | 16 | 294 | 0.0 | 0.0 | 0.00 | 0.00 | 0.00 | 57 | 1006.3 |
| 20260507043542 | 16 | 294 | 0.0 | 0.0 | 0.00 | 0.00 | 0.00 | 57 | 1006.2 |
| 20260507043055 | 16 | 294 | 0.0 | 0.0 | 0.00 | 0.00 | 0.00 | 57 | 1006.1 |
| 20260507042509 | 17 | 294 | 0.0 | 0.0 | 0.00 | 0.00 | 0.00 | 57 | 1006.0 |
| 20260507042018 | 17 | 294 | 0.0 | 0.0 | 0.00 | 0.00 | 0.00 | 57 | 1006.0 |
| 20260507041532 | 17 | 294 | 0.0 | 0.0 | 0.00 | 0.00 | 0.00 | 57 | 1006.0 |
| 20260507041038 | 17 | 294 | 0.0 | 0.0 | 0.00 | 0.00 | 0.00 | 57 | 1006.0 |
| 20260507040552 | 17 | 261 | 0.0 | 0.0 | 0.00 | 0.00 | 0.00 | 57 | 1006.0 |
| 20260507040011 | 17 | 261 | 0.0 | 0.0 | 0.00 | 0.00 | 0.00 | 57 | 1006.2 |
| 20260507035512 | 17 | 261 | 0.0 | 0.0 | 0.00 | 0.00 | 0.00 | 57 | 1006.4 |
| 20260507035024 | 17 | 261 | 0.0 | 0.0 | 0.00 | 0.00 | 0.00 | 57 | 1006.4 |
| 20260507034535 | 17 | 261 | 0.0 | 0.0 | 0.00 | 0.00 | 0.00 | 57 | 1006.4 |
| 20260507034048 | 17 | 261 | 0.0 | 0.0 | 0.00 | 0.00 | 0.00 | 57 | 1006.3 |
| 20260507033558 | 17 | 261 | 0.0 | 0.0 | 0.00 | 0.00 | 0.00 | 57 | 1006.2 |
| 20260507033014 | 17 | 261 | 0.0 | 0.0 | 0.00 | 0.00 | 0.00 | 57 | 1006.0 |
| 20260507032524 | 17 | 261 | 0.0 | 0.0 | 0.00 | 0.00 | 0.00 | 57 | 1006.0 |
| 20260507032041 | 17 | 261 | 0.0 | 0.0 | 0.00 | 0.00 | 0.00 | 57 | 1006.0 |
| 20260507031548 | 17 | 261 | 0.0 | 0.0 | 0.00 | 0.00 | 0.00 | 57 | 1006.0 |
| 20260507031005 | 17 | 261 | 0.0 | 0.0 | 0.00 | 0.00 | 0.00 | 57 | 1005.8 |
| 20260507030519 | 17 | 261 | 0.0 | 0.0 | 0.00 | 0.00 | 0.00 | 57 | 1005.7 |
| 20260507030030 | 17 | 225 | 0.0 | 0.0 | 0.00 | 0.00 | 0.00 | 57 | 1005.7 |
| 20260507025543 | 17 | 225 | 0.0 | 0.0 | 0.00 | 0.00 | 0.00 | 57 | 1005.7 |
| 20260507025053 | 17 | 225 | 0.0 | 0.0 | 0.00 | 0.00 | 0.00 | 57 | 1005.7 |
| 20260507024514 | 17 | 225 | 0.0 | 0.0 | 0.00 | 0.00 | 0.00 | 57 | 1005.6 |
| 20260507024018 | 17 | 227 | 0.0 | 0.0 | 0.00 | 0.00 | 0.00 | 57 | 1005.6 |
| 20260507023532 | 17 | 266 | 0.0 | 0.0 | 0.00 | 0.00 | 0.00 | 57 | 1005.7 |
| 20260507023044 | 17 | 266 | 0.0 | 0.0 | 0.00 | 0.00 | 0.00 | 57 | 1005.8 |
| 20260507022557 | 17 | 266 | 0.0 | 0.0 | 0.00 | 0.00 | 0.00 | 57 | 1005.9 |
| 20260507022009 | 16 | 127 | 0.0 | 0.0 | 0.00 | 0.00 | 0.00 | 57 | 1005.7 |
| 20260507021522 | 16 | 192 | 0.0 | 0.0 | 0.00 | 0.00 | 0.00 | 57 | 1005.6 |
| 20260507021032 | 16 | 192 | 0.0 | 0.0 | 0.00 | 0.00 | 0.00 | 57 | 1005.7 |
| 20260507020546 | 16 | 142 | 0.0 | 0.0 | 0.00 | 0.00 | 0.00 | 57 | 1005.7 |
| 20260507020115 | 16 | 219 | 0.0 | 0.0 | 0.00 | 0.00 | 0.00 | 57 | 1005.8 |
| 20260507015516 | 16 | 219 | 0.0 | 0.0 | 0.00 | 0.00 | 0.00 | 57 | 1005.8 |
| 20260507015025 | 16 | 227 | 0.0 | 0.0 | 0.00 | 0.00 | 0.00 | 57 | 1005.8 |
| 20260507014543 | 16 | 245 | 0.0 | 0.0 | 0.00 | 0.00 | 0.00 | 57 | 1005.6 |
| 20260507014046 | 16 | 253 | 0.0 | 0.0 | 0.00 | 0.00 | 0.00 | 57 | 1005.7 |
| 20260507013502 | 16 | 242 | 0.0 | 0.0 | 0.00 | 0.00 | 0.00 | 57 | 1005.7 |
| 20260507013014 | 16 | 186 | 0.0 | 0.0 | 0.00 | 0.00 | 0.00 | 57 | 1005.8 |
| 20260507012526 | 16 | 160 | 0.0 | 0.0 | 0.00 | 0.00 | 0.00 | 57 | 1005.9 |
| 20260507012037 | 16 | 160 | 0.0 | 0.0 | 0.00 | 0.00 | 0.00 | 57 | 1006.0 |
| 20260507011551 | 16 | 140 | 0.0 | 0.0 | 0.00 | 0.00 | 0.00 | 57 | 1006.0 |
| 20260507011102 | 16 | 233 | 1.6 | 0.0 | 0.00 | 0.00 | 0.00 | 57 | 1006.1 |
| 20260507011007 | 16 | 233 | 1.6 | 0.0 | 0.00 | 0.00 | 0.00 | 57 | 1006.1 |
| 20260507010516 | 16 | 233 | 1.6 | 0.0 | 0.00 | 0.00 | 0.00 | 57 | 1006.2 |
| 20260507010048 | 16 | 187 | 1.6 | 0.0 | 0.00 | 0.00 | 0.00 | 57 | 1006.0 |
| 20260507005541 | 16 | 133 | 1.6 | 0.0 | 0.00 | 0.00 | 0.00 | 57 | 1006.1 |
| 20260507005055 | 16 | 150 | 1.6 | 0.0 | 0.00 | 0.00 | 0.00 | 57 | 1006.1 |
| 20260507004506 | 16 | 113 | 0.0 | 0.0 | 0.00 | 0.00 | 0.00 | 57 | 1006.1 |
| 20260507004020 | 16 | 192 | 0.0 | 0.0 | 0.00 | 0.00 | 0.00 | 57 | 1006.2 |
| 20260507003532 | 16 | 184 | 0.0 | 0.0 | 0.00 | 0.00 | 0.00 | 57 | 1006.1 |
| 20260507003044 | 16 | 191 | 0.0 | 0.0 | 0.00 | 0.00 | 0.00 | 57 | 1005.9 |
| 20260507002555 | 16 | 191 | 0.0 | 0.0 | 0.00 | 0.00 | 0.00 | 57 | 1006.0 |
| 20260507002014 | 16 | 142 | 0.0 | 0.0 | 0.00 | 0.00 | 0.00 | 57 | 1006.0 |
| 20260507001520 | 16 | 141 | 1.6 | 0.0 | 0.00 | 0.00 | 0.00 | 57 | 1005.9 |
| 20260507001034 | 16 | 172 | 1.6 | 0.0 | 0.00 | 0.00 | 0.00 | 57 | 1005.8 |
| 20260507000546 | 16 | 231 | 0.0 | 0.0 | 0.00 | 0.00 | 0.00 | 57 | 1005.8 |
| 20260507000058 | 16 | 202 | 0.0 | 0.0 | 0.00 | 0.00 | 0.00 | 57 | 1005.8 |
| 20260506235511 | 16 | 187 | 0.0 | 0.0 | 0.00 | 0.00 | 0.00 | 57 | 1005.6 |
| 20260506235024 | 16 | 187 | 0.0 | 0.0 | 0.00 | 0.00 | 0.00 | 57 | 1005.8 |
| 20260506234534 | 16 | 216 | 0.0 | 0.0 | 0.00 | 0.00 | 0.00 | 57 | 1005.7 |
| 20260506234048 | 16 | 216 | 0.0 | 0.0 | 0.00 | 0.00 | 0.00 | 57 | 1005.7 |
| 20260506233558 | 16 | 187 | 0.0 | 0.0 | 0.00 | 0.00 | 0.00 | 57 | 1005.7 |
| 20260506233015 | 16 | 220 | 0.0 | 0.0 | 0.00 | 0.00 | 0.00 | 57 | 1005.7 |
| 20260506232526 | 16 | 210 | 0.0 | 0.0 | 0.00 | 0.00 | 0.00 | 57 | 1005.6 |
| 20260506232038 | 16 | 154 | 1.6 | 0.0 | 0.00 | 0.00 | 0.00 | 57 | 1005.6 |
| 20260506231605 | 16 | 226 | 1.6 | 0.0 | 0.00 | 0.00 | 0.00 | 57 | 1005.7 |
| 20260506231010 | 16 | 191 | 1.6 | 0.0 | 0.00 | 0.00 | 0.00 | 57 | 1005.7 |
| 20260506230508 | 16 | 120 | 0.0 | 0.0 | 0.00 | 0.00 | 0.00 | 57 | 1005.7 |
| 20260506230019 | 16 | 116 | 0.0 | 0.0 | 0.00 | 0.00 | 0.00 | 57 | 1005.8 |
| 20260506225527 | 16 | 245 | 0.0 | 0.0 | 0.00 | 0.00 | 0.00 | 57 | 1005.7 |
| 20260506225036 | 16 | 142 | 0.0 | 0.0 | 0.00 | 0.00 | 0.00 | 57 | 1005.7 |
| 20260506224552 | 16 | 139 | 1.6 | 0.0 | 0.00 | 0.00 | 0.00 | 57 | 1005.6 |
| 20260506224002 | 17 | 284 | 1.6 | 0.0 | 0.00 | 0.00 | 0.00 | 57 | 1005.8 |
| 20260506223517 | 17 | 120 | 0.0 | 0.0 | 0.00 | 0.00 | 0.00 | 57 | 1005.8 |
| 20260506223026 | 17 | 170 | 0.0 | 0.0 | 0.00 | 0.00 | 0.00 | 57 | 1005.9 |
| 20260506222540 | 17 | 204 | 1.6 | 0.0 | 0.00 | 0.00 | 0.00 | 57 | 1005.8 |
| 20260506222054 | 17 | 166 | 1.6 | 0.0 | 0.00 | 0.00 | 0.00 | 57 | 1005.9 |
| 20260506221506 | 16 | 149 | 0.0 | 0.0 | 0.00 | 0.00 | 0.00 | 57 | 1006.0 |
| 20260506221016 | 16 | 165 | 0.0 | 0.0 | 0.00 | 0.00 | 0.00 | 57 | 1006.1 |
| 20260506220530 | 16 | 170 | 0.0 | 0.0 | 0.00 | 0.00 | 0.00 | 57 | 1006.1 |
| 20260506220050 | 16 | 243 | 0.0 | 0.0 | 0.00 | 0.00 | 0.00 | 57 | 1006.2 |
| 20260506215554 | 16 | 175 | 0.0 | 0.0 | 0.00 | 0.00 | 0.00 | 57 | 1006.1 |
| 20260506215006 | 16 | 158 | 0.0 | 0.0 | 0.00 | 0.00 | 0.00 | 57 | 1006.1 |
| 20260506214520 | 16 | 177 | 0.0 | 0.0 | 0.00 | 0.00 | 0.00 | 57 | 1006.1 |
| 20260506214029 | 16 | 208 | 1.6 | 0.0 | 0.00 | 0.00 | 0.00 | 57 | 1006.2 |
| 20260506213544 | 16 | 151 | 1.6 | 0.0 | 0.00 | 0.00 | 0.00 | 57 | 1006.4 |
| 20260506213109 | 16 | 208 | 0.0 | 0.0 | 0.00 | 0.00 | 0.00 | 57 | 1006.3 |
| 20260506212510 | 15 | 200 | 1.6 | 0.0 | 0.00 | 0.00 | 0.00 | 57 | 1006.5 |
| 20260506212025 | 15 | 207 | 1.6 | 0.0 | 0.00 | 0.00 | 0.00 | 57 | 1006.5 |
| 20260506211535 | 15 | 258 | 1.6 | 0.0 | 0.00 | 0.00 | 0.00 | 57 | 1006.4 |
| 20260506211040 | 15 | 223 | 1.6 | 0.0 | 0.00 | 0.00 | 0.00 | 57 | 1006.4 |
| 20260506210554 | 15 | 216 | 1.6 | 0.0 | 0.00 | 0.00 | 0.00 | 57 | 1006.4 |
| 20260506210012 | 15 | 204 | 1.6 | 0.0 | 0.00 | 0.00 | 0.00 | 57 | 1006.4 |
| 20260506205520 | 15 | 187 | 1.6 | 0.0 | 0.00 | 0.00 | 0.00 | 57 | 1006.6 |
| 20260506205035 | 15 | 191 | 1.6 | 0.0 | 0.00 | 0.00 | 0.00 | 57 | 1006.5 |
| 20260506204544 | 15 | 152 | 1.6 | 0.0 | 0.00 | 0.00 | 0.00 | 57 | 1006.5 |
| 20260506204100 | 15 | 250 | 1.6 | 0.0 | 0.00 | 0.00 | 0.00 | 57 | 1006.6 |
| 20260506203510 | 15 | 257 | 1.6 | 0.0 | 0.00 | 0.00 | 0.00 | 57 | 1006.8 |
| 20260506203024 | 15 | 184 | 1.6 | 0.0 | 0.00 | 0.00 | 0.00 | 57 | 1006.8 |
| 20260506202534 | 15 | 159 | 1.6 | 0.0 | 0.00 | 0.00 | 0.00 | 57 | 1006.7 |
| 20260506202049 | 15 | 204 | 1.6 | 0.0 | 0.00 | 0.00 | 0.00 | 57 | 1006.8 |
| 20260506201558 | 15 | 238 | 1.6 | 0.0 | 0.00 | 0.00 | 0.00 | 57 | 1006.8 |
| 20260506201503 | 15 | 238 | 1.6 | 0.0 | 0.00 | 0.00 | 0.00 | 57 | 1006.7 |
| 20260506201014 | 15 | 289 | 1.6 | 0.0 | 0.00 | 0.00 | 0.00 | 57 | 1006.6 |
| 20260506200524 | 15 | 230 | 1.6 | 0.0 | 0.00 | 0.00 | 0.00 | 57 | 1006.6 |
| 20260506200039 | 15 | 175 | 0.0 | 0.0 | 0.00 | 0.00 | 0.00 | 57 | 1006.6 |
| 20260506195556 | 15 | 270 | 0.0 | 0.0 | 0.00 | 0.00 | 0.00 | 57 | 1006.5 |
| 20260506195004 | 15 | 271 | 1.6 | 0.0 | 0.00 | 0.00 | 0.00 | 57 | 1006.5 |
| 20260506194515 | 15 | 185 | 1.6 | 0.0 | 0.00 | 0.00 | 0.00 | 61 | 1006.5 |
| 20260506194031 | 15 | 185 | 1.6 | 0.0 | 0.00 | 0.00 | 0.00 | 63 | 1006.5 |
| 20260506193538 | 16 | 189 | 1.6 | 0.0 | 0.00 | 0.00 | 0.00 | 73 | 1006.8 |
| 20260506193052 | 16 | 141 | 1.6 | 0.0 | 0.00 | 0.00 | 0.00 | 81 | 1006.9 |
| 20260506192504 | 16 | 167 | 0.0 | 0.0 | 0.00 | 0.00 | 0.00 | 83 | 1006.8 |
| 20260506192015 | 17 | 232 | 0.0 | 0.0 | 0.00 | 0.00 | 0.00 | 91 | 1006.9 |
| 20260506191520 | 17 | 231 | 1.6 | 0.0 | 0.00 | 0.00 | 0.00 | 100 | 1006.9 |
| 20260506191035 | 18 | 239 | 1.6 | 0.0 | 0.00 | 0.00 | 0.00 | 100 | 1006.7 |
| 20260506190547 | 18 | 248 | 1.6 | 0.0 | 0.00 | 0.00 | 0.00 | 100 | 1006.7 |
| 20260506190059 | 19 | 214 | 1.6 | 0.0 | 0.00 | 0.00 | 0.00 | 100 | 1006.8 |
| 20260506185515 | 20 | 253 | 1.6 | 0.0 | 0.00 | 0.00 | 0.00 | 100 | 1006.7 |
| 20260506185024 | 20 | 181 | 1.6 | 0.0 | 0.00 | 0.00 | 0.00 | 100 | 1006.8 |
| 20260506184542 | 20 | 264 | 1.6 | 0.0 | 0.00 | 0.00 | 0.00 | 100 | 1006.8 |
| 20260506184049 | 20 | 168 | 1.6 | 0.0 | 0.00 | 0.00 | 0.00 | 100 | 1006.8 |
| 20260506183505 | 20 | 246 | 3.2 | 0.0 | 0.00 | 0.00 | 0.00 | 100 | 1006.9 |
| 20260506183014 | 20 | 152 | 3.2 | 0.0 | 0.00 | 0.00 | 0.00 | 100 | 1007.0 |
| 20260506182530 | 21 | 262 | 3.2 | 0.0 | 0.00 | 0.00 | 0.00 | 100 | 1006.9 |
| 20260506182038 | 21 | 297 | 3.2 | 0.0 | 0.00 | 0.00 | 0.00 | 100 | 1007.0 |
| 20260506181552 | 21 | 204 | 1.6 | 0.0 | 0.00 | 0.00 | 0.00 | 100 | 1007.0 |
| 20260506181006 | 21 | 194 | 3.2 | 0.0 | 0.00 | 0.00 | 0.00 | 100 | 1007.0 |